This is the latest recevied weather packets stored in our database for station/object W4MSI. If no packets are shown the sender has not sent any weather packets the latest 10 day(s).
| Time | Temp. | Humidity | Pressure | Rain* | Wind** | Luminosity | Snow |
|---|---|---|---|---|---|---|---|
| 1777034630 | 17.78° C | 74% | 1010.8 hPa | 0 mm | - | 135 W/m² | - |
| 1777034327 | 17.78° C | 73% | 1010.9 hPa | 0 mm | - | 128 W/m² | - |
| 1777034023 | 17.22° C | 73% | 1010.7 hPa | 0 mm | - | 127 W/m² | - |
| 1777033719 | 16.67° C | 75% | 1010.6 hPa | 0 mm | - | 113 W/m² | - |
| 1777033415 | 16.67° C | 75% | 1010.8 hPa | 0 mm | - | 108 W/m² | - |
| 1777033113 | 16.67° C | 74% | 1010.3 hPa | 0 mm | - | 96 W/m² | - |
| 1777032813 | 16.67° C | 73% | 1010.4 hPa | 0 mm | - | 97 W/m² | - |
| 1777032511 | 16.67° C | 75% | 1010.4 hPa | 0 mm | - | 90 W/m² | - |
| 1777032210 | 16.11° C | 76% | 1010.3 hPa | 0 mm | - | 75 W/m² | - |
| 1777031905 | 15.56° C | 77% | 1010.4 hPa | 0 mm | - | 73 W/m² | - |
| 1777031601 | 15.56° C | 77% | 1010.2 hPa | 0 mm | - | 65 W/m² | - |
| 1777031296 | 15.56° C | 78% | 1010.2 hPa | 0 mm | - | 51 W/m² | - |
| 1777030992 | 15.56° C | 78% | 1010.3 hPa | 0 mm | - | 45 W/m² | - |
| 1777030688 | 15.56° C | 78% | 1010.3 hPa | 0 mm | - | 40 W/m² | - |
| 1777030383 | 15° C | 79% | 1010.2 hPa | 0 mm | - | 32 W/m² | - |
| 1777030079 | 15° C | 80% | 1010.1 hPa | 0 mm | - | 23 W/m² | - |
| 1777029776 | 14.44° C | 81% | 1010.2 hPa | 0 mm | - | 20 W/m² | - |
| 1777029473 | 14.44° C | 83% | 1010.1 hPa | 0 mm | - | 13 W/m² | - |
| 1777029170 | 14.44° C | 82% | 1010.2 hPa | 0 mm | - | 8 W/m² | - |
| 1777028865 | 14.44° C | 82% | 1010.3 hPa | 0 mm | - | 6 W/m² | - |
| 1777028564 | 14.44° C | 82% | 1010.3 hPa | 0 mm | - | 3 W/m² | - |
| 1777028260 | 14.44° C | 81% | 1010.3 hPa | 0 mm | - | 1 W/m² | - |
| 1777027956 | 14.44° C | 81% | 1010.2 hPa | 0 mm | - | 0 W/m² | - |
| 1777027651 | 14.44° C | 81% | 1010.3 hPa | 0 mm | - | 0 W/m² | - |
| 1777027347 | 14.44° C | 82% | 1010.2 hPa | 0 mm | - | 0 W/m² | - |
* Rain latest hour (hover to see other rain measurements)
** Current wind speed in m/s (hover to see current wind gust speed)